TimeEDT,TemperatureF,Dew PointF,Humidity,Sea Level PressureIn,VisibilityMPH,Wind Direction,Wind SpeedMPH,Gust SpeedMPH,PrecipitationIn,Events,Conditions,WindDirDegrees,DateUTC
12:54 AM,39.9,37.0,89,30.12,10.0,East,8.1,-,N/A,,Mostly Cloudy,90,2013-10-31 04:54:00
1:54 AM,39.9,36.0,86,30.10,10.0,ENE,5.8,-,N/A,,Mostly Cloudy,70,2013-10-31 05:54:00
2:54 AM,39.0,36.0,89,30.09,9.0,East,3.5,-,N/A,,Mostly Cloudy,90,2013-10-31 06:54:00
3:54 AM,39.0,36.0,89,30.06,10.0,East,4.6,-,N/A,,Mostly Cloudy,100,2013-10-31 07:54:00
4:54 AM,39.9,37.0,89,30.04,10.0,Calm,Calm,-,N/A,,Mostly Cloudy,0,2013-10-31 08:54:00
5:54 AM,44.1,39.9,85,30.02,8.0,Calm,Calm,-,N/A,Fog,Patches of Fog,0,2013-10-31 09:54:00
6:54 AM,50.0,46.0,86,29.99,6.0,ESE,8.1,-,0.00,Rain,Light Rain,110,2013-10-31 10:54:00
7:54 AM,51.1,46.9,86,29.98,6.0,ESE,5.8,-,0.00,,Overcast,120,2013-10-31 11:54:00
8:54 AM,54.0,48.9,83,29.96,5.0,ESE,8.1,-,0.00,,Light Drizzle,120,2013-10-31 12:54:00
9:54 AM,55.9,52.0,87,29.94,4.0,South,16.1,21.9,0.04,Rain,Light Rain,170,2013-10-31 13:54:00
10:04 AM,55.4,51.8,88,29.93,2.5,South,16.1,23.0,0.04,Rain,Heavy Rain,180,2013-10-31 14:04:00
10:14 AM,55.4,51.8,88,29.92,4.0,South,15.0,23.0,0.05,Rain,Light Rain,170,2013-10-31 14:14:00
10:54 AM,57.0,53.1,87,29.89,9.0,South,19.6,27.6,0.09,Rain,Light Rain,180,2013-10-31 14:54:00
11:54 AM,59.0,54.0,83,29.88,10.0,South,12.7,20.7,0.03,Rain,Light Rain,180,2013-10-31 15:54:00
12:54 PM,60.1,55.0,83,29.85,10.0,South,9.2,18.4,0.02,Rain,Light Rain,180,2013-10-31 16:54:00
1:54 PM,59.0,55.0,87,29.81,10.0,SSE,11.5,-,0.02,Rain,Light Rain,160,2013-10-31 17:54:00
2:54 PM,59.0,55.0,87,29.80,10.0,SSE,6.9,-,0.03,Rain,Light Rain,160,2013-10-31 18:54:00
3:54 PM,60.1,55.0,83,29.78,10.0,SE,5.8,-,0.02,,Light Drizzle,140,2013-10-31 19:54:00
4:54 PM,62.1,55.9,80,29.75,10.0,South,15.0,21.9,0.02,,Light Drizzle,180,2013-10-31 20:54:00
5:54 PM,61.0,55.9,83,29.72,10.0,SSE,10.4,-,0.02,Rain,Light Rain,160,2013-10-31 21:54:00
6:54 PM,61.0,55.9,83,29.70,10.0,SSE,15.0,-,0.00,,Overcast,160,2013-10-31 22:54:00
7:54 PM,60.1,57.0,90,29.68,5.0,SSE,8.1,-,0.05,Rain,Rain,160,2013-10-31 23:54:00
8:54 PM,61.0,55.9,83,29.62,7.0,South,8.1,-,0.05,Rain,Light Rain,180,2013-11-01 00:54:00
9:54 PM,62.1,57.0,84,29.58,8.0,South,12.7,-,0.01,,Light Drizzle,170,2013-11-01 01:54:00
10:54 PM,63.0,57.0,81,29.53,10.0,South,11.5,26.5,0.01,,Light Drizzle,170,2013-11-01 02:54:00
11:54 PM,62.1,55.9,80,29.49,7.0,South,13.8,25.3,0.06,Rain,Light Rain,190,2013-11-01 03:54:00